Regional Weather Roundup
Issued by NWS Grand Forks, ND

Home | Current Version | Previous Version | Graphics & Text | Print | Product List | Glossary On
Versions: 1 2 3 4 5 6 7 8 9 10 11 12 13 14 15 16 17 18 19 20 21 22 23 24 25 26 27 28 29 30 31 32 33 34 35 36 37 38 39 40 41 42 43 44 45 46 47 48 49 50
000
ASUS43 KFGF 201210
RWRFGF
PRAIRIE TO PINES  WEATHER ROUNDUP
NATIONAL WEATHER SERVICE EASTERN NORTH DAKOTA/GRAND FORKS ND
700 AM CDT SUN APR 20 2014

 **SATELLITE DATA USED TO AUGMENT SKY COVER AT AUTOMATED STATIONS**
 *****  WEATHER ACROSS EASTERN NORTH DAKOTA  *****

CITY           SKY/WX    TMP DP  RH WIND       PRES   REMARKS
GRAND FORKS    PTCLDY    29  27  92 CALM      30.04R
6HR MIN TEMP:  27; 6HR MAX TEMP:  35;

GRAND FRKS AFB CLEAR     27  27 100 N2        30.04R FOG
GRAND FRKS NWS   N/A     30 N/A N/A S2          N/A
DEVILS LAKE    CLEAR     28  23  80 E6        29.99S WCI  22
6HR MIN TEMP:  28; 6HR MAX TEMP:  34;

FARGO          CLEAR     31  29  92 CALM      30.03S
WAHPETON ARPT  SUNNY     30  27  86 SW3       30.05R
$$

 ***** WEATHER ACROSS CENTRAL AND WESTERN NORTH DAKOTA  *****

CITY           SKY/WX    TMP DP  RH WIND       PRES   REMARKS
BISMARCK       CLEAR     33  50 100 E7        29.96F
6HR MIN TEMP:  32; 6HR MAX TEMP:  40;

MINOT          CLEAR     33  29  85 E5        29.91F
6HR MIN TEMP:  32; 6HR MAX TEMP:  38;

JAMESTOWN      CLEAR     32  31  96 SE5       29.99S
6HR MIN TEMP:  29; 6HR MAX TEMP:  35;

MINOT AFB      CLEAR     32  31  96 E5        29.91F
GARRISON         N/A     33  29  85 E3        29.93F
WILLISTON      MOCLDY    30  27  88 CALM      29.86F
6HR MIN TEMP:  28; 6HR MAX TEMP:  34;

DICKINSON      CLEAR     36  25  64 S12       29.88S
6HR MIN TEMP:  33; 6HR MAX TEMP:  38;

HETTINGER      CLEAR     27  22  81 CALM      29.92F
6HR MIN TEMP:  26; 6HR MAX TEMP:  35;

$$

 *****  OTHER AIRPORT OBSERVATIONS IN OUR AREA  *****

CITY           SKY/WX    TMP DP  RH WIND       PRES   REMARKS
WALHALLA         N/A     28  28 100 CALM      30.03R
GRAFTON AIRPOR FAIR      28  28 100 SW5       30.04R WCI  23
VALLEY CITY AR FAIR      32  32 100 SE3       30.01S
CANDO          FAIR      28  28 100 E8        30.00R WCI  20
CAVALIER APRT  FAIR      30  28  93 CALM      30.03R
GWINNER        SUNNY     36  36 100 SE7       30.03S
ROLLA          FAIR      27  27 100 S3        29.98S
 ***** THE ABOVE OBSERVATIONS ARE NON NWS ARE NOT QUALITY
       CONTROLLED AND MAY MIS-REPORT RAIN FOR SNOW...
$$

  *****  WEATHER ACROSS NORTHERN MINNESOTA  *****

CITY           SKY/WX    TMP DP  RH WIND       PRES   REMARKS
FLAG ISLAND    CLEAR     30  27  86 SW6       30.01R WCI  24
WARROAD        CLEAR     30  27  86 SW5       30.04R
ROSEAU         CLEAR     30  25  80 SW3       30.03R
HALLOCK        CLOUDY    30  28  93 CALM      30.03R FOG
THF RVR FALLS  CLEAR     32  28  86 CALM      30.04R
6HR MIN TEMP:  30; 6HR MAX TEMP:  39;

BAUDETTE       CLEAR     30  30 100 CALM      30.03R
6HR MIN TEMP:  28; 6HR MAX TEMP:  39;

WASKISH        CLEAR     30  30 100 CALM      30.04R
CROOKSTON      CLEAR     34  32  93 CALM      30.04S
$$
  *****  WEATHER ACROSS CENTRAL AND WEST MINNESOTA  *****

CITY           SKY/WX    TMP DP  RH WIND       PRES   REMARKS
FOSSTON        CLEAR     28  27  93 CALM      30.03S
BEMIDJI        CLEAR     27  26  96 CALM      30.04R
PARK RAPIDS    CLEAR     29  28  96 CALM      30.04R
6HR MIN TEMP:  28; 6HR MAX TEMP:  42;

ELBOW LAKE     FAIR      42  35  76 E10       30.04R
6HR MIN TEMP:  41; 6HR MAX TEMP:  48;

WADENA         CLEAR     30  28  93 CALM      30.05R
DETROIT LAKES  CLEAR     34  32  93 CALM      30.05R
MOORHEAD       NOT AVBL
FERGUS FALLS   CLEAR     45  32  61 CALM      30.01S
MORRIS MN      CLEAR     37  32  81 E9        30.03S
STAPLES        CLEAR     30  30 100 CALM      30.05S
$$
  *****  WEATHER ELSEWHERE ACROSS MINNESOTA  *****

CITY           SKY/WX    TMP DP  RH WIND       PRES   REMARKS
DULUTH         CLEAR     37  34  89 NW7       30.03R
6HR MIN TEMP:  31; 6HR MAX TEMP:  37;

INTRNTL FALLS  CLEAR     30  28  92 SW5       30.03R
6HR MIN TEMP:  26; 6HR MAX TEMP:  40;

ELY            CLEAR     28  28 100 CALM      30.04R FOG
CLOQUET        CLEAR     32  30  93 NW3       30.04R FOG
WHEATON        CLEAR     37  36  93 SW3       30.07R
BRAINERD       CLEAR     35  29  78 CALM      30.06R
6HR MIN TEMP:  33; 6HR MAX TEMP:  45;

HIBBING        CLEAR     27  24  89 CALM      30.04R
6HR MIN TEMP:  25; 6HR MAX TEMP:  33;

ALEXANDRIA     CLEAR     39  33  79 E6        30.05S
6HR MIN TEMP:  39; 6HR MAX TEMP:  47;

SAINT CLOUD    PTCLDY    35  34  96 CALM      30.04S FOG
6HR MIN TEMP:  33; 6HR MAX TEMP:  40;

MINNEAPOLIS    MOCLDY    46  45  96 N3        30.03S FOG
6HR MIN TEMP:  46; 6HR MAX TEMP:  51; 6HR PCP:  0.10;

$$

  *****  WEATHER ACROSS SOUTH DAKOTA  *****

CITY           SKY/WX    TMP DP  RH WIND       PRES   REMARKS
SIOUX FALLS    PTCLDY    44  37  76 NE5       29.99F
6HR MIN TEMP:  44; 6HR MAX TEMP:  55;

BROOKINGS      NOT AVBL
WATERTOWN      CLEAR     35  33  92 CALM      30.03S
6HR MIN TEMP:  35; 6HR MAX TEMP:  45;

HURON          CLEAR     35  28  75 SE3       30.00F
6HR MIN TEMP:  32; 6HR MAX TEMP:  43;

SISSETON         N/A     34  33  96 SW5       30.04S
ABERDEEN       CLEAR     33  31  92 CALM      30.01S
6HR MIN TEMP:  32; 6HR MAX TEMP:  47;

MITCHELL         N/A    N/A N/A N/A MISG      30.01S
PIERRE         MOCLDY    36  28  73 E5        29.96F
6HR MIN TEMP:  33; 6HR MAX TEMP:  47;

MOBRIDGE       CLEAR     36  32  85 SE5       29.94F
RAPID CITY     CLEAR     38  28  67 CALM      29.91F
6HR MIN TEMP:  36; 6HR MAX TEMP:  46;

$$

  *****  SOME WEATHER IN NEARBY STATES *****

CITY           SKY/WX    TMP DP  RH WIND       PRES   REMARKS
GLASGOW MT     MOCLDY    38  29  70 E13       29.78F
6HR MIN TEMP:  37; 6HR MAX TEMP:  42;

GREAT FALLS MT CLEAR     40  26  57 SW15      30.00R
6HR MIN TEMP:  37; 6HR MAX TEMP:  48;

CHEYENNE WY    CLEAR     38  32  79 W8        30.05S
6HR MIN TEMP:  37; 6HR MAX TEMP:  49;

SCOTTSBLUFF NE CLEAR     39  34  82 E6        29.99S
6HR MIN TEMP:  39; 6HR MAX TEMP:  48;

OMAHA NE       PTCLDY    59  47  64 SE9       29.98R
6HR MIN TEMP:  58; 6HR MAX TEMP:  67;

DES MOINES IA  PTCLDY    57  44  62 S10       30.05R
6HR MIN TEMP:  56; 6HR MAX TEMP:  63;

DAVENPORT IA   PTCLDY    56  37  49 S13       30.15S
6HR MIN TEMP:  53; 6HR MAX TEMP:  58;

CHICAGO IL     MOCLDY    45  30  55 S8        30.23R
6HR MIN TEMP:  41; 6HR MAX TEMP:  53;

EAU CLAIRE WI  CLOUDY    51  49  92 CALM      30.04R
6HR MIN TEMP:  51; 6HR MAX TEMP:  57; 6HR PCP:  0.03;

LA CROSSE WI   CLOUDY    58  42  55 N3        30.09R
6HR MIN TEMP:  58; 6HR MAX TEMP:  63; 6HR PCP: TRACE;

$$

  *****  SOME NATIONAL WEATHER *****

CITY           SKY/WX    TMP DP  RH WIND       PRES   REMARKS
LA GUARDIA NY  PTSUNNY   47  30  51 NE10      30.48R
6HR MIN TEMP:  45; 6HR MAX TEMP:  51;

RALEIGH NC     PTSUNNY   50  32  50 NE12G18   30.22R
6HR MIN TEMP:  49; 6HR MAX TEMP:  52;

ATLANTA GA     MOSUNNY   53  43  68 N8        30.21R
6HR MIN TEMP:  51; 6HR MAX TEMP:  54;

NEW ORLEANS LA PTCLDY    63  57  81 NE6       30.15R
6HR MIN TEMP:  58; 6HR MAX TEMP:  66;

OKLAHOMA CITY  CLOUDY    58  51  78 S8        30.10R
6HR MIN TEMP:  54; 6HR MAX TEMP:  60;

ALBUQUERQUE NM MOCLDY    47  43  86 SE7       30.12R
6HR MIN TEMP:  47; 6HR MAX TEMP:  52; 6HR PCP: TRACE;

SALT LAKE CITY MOCLDY    54  39  57 E8        30.02S
6HR MIN TEMP:  52; 6HR MAX TEMP:  56; 6HR PCP:  0.01;

LOS ANGELES CA PTCLDY    58  54  86 E5        30.03F
6HR MIN TEMP:  57; 6HR MAX TEMP:  61;

BOISE ID       CLEAR     45  30  55 NW12      30.18R



USA.gov is the U.S. government's official web portal to all federal, state and local government web resources and services.